Location: Colorado Springs
(38.8340°N, 104.8210°W)
Time: 06:22:22
(UTC-07:00)

Tiangong 2 - Pass Details

Date: 15 October 2017
Orbit: 386 x 390 km, 42.8° (Epoch: 14 December)

Event Time Altitude Azimuth Distance (km) Brightness Sun altitude
Exits shadow 06:41:12 - 293° (WNW) 1,631 3.6 -6.2°
Reaches altitude 10° 06:41:43 10° 294° (WNW) 1,423 3.3 -6.1°
Maximum altitude 06:44:53 57° 14° (NNE) 467 1.5 -5.5°
Drops below altitude 10° 06:48:03 10° 95° (E) 1,423 5.9 -4.9°
Sets 06:50:09 0° 99° (E) 2,278 8.2 -4.5°
